Regional Weather Roundup
Issued by NWS

Home | Current Version | Previous Version | Graphics & Text | Print | Product List | Glossary On
Versions: 1 2 3 4 5 6 7 8 9 10 11 12 13 14 15 16 17 18 19 20 21 22 23 24 25 26 27 28 29 30 31 32 33 34 35 36 37 38 39 40 41 42 43 44 45 46 47 48 49 50
000
ASUS43 KLMK 230302
RWRKY
KENTUCKY REGIONAL WEATHER ROUNDUP
NATIONAL WEATHER SERVICE LOUISVILLE KY
1100 PM EDT FRI AUG 22 2014

NOTE "FAIR" INDICATES FEW OR NO CLOUDS BELOW 12,000 FEET
WITH NO SIGNIFICANT WEATHER AND/OR OBSTRUCTIONS TO VISIBILITY.

KYZ001>023-026-027-061>063-070>075-230400-
WESTERN AND SOUTH CENTRAL KENTUCKY

CITY           SKY/WX    TMP DP  RH WIND       PRES   REMARKS
PADUCAH        MOCLDY    83  76  79 S5        29.98R HX  91
HENDERSON      MOCLDY    79  73  83 S3        29.97S
OWENSBORO      MOCLDY    82  77  85 CALM      30.00R HX  90
HOPKINSVILLE   PTCLDY    80  77  89 SW2       30.01S
BOWLING GREEN  CLOUDY    83  73  72 SW3       30.02R
GLASGOW        PTCLDY    78  77  98 CALM      30.03S
$$

KYZ024-025-028>034-038-045-046-053-230400-
NORTH CENTRAL KENTUCKY

CITY           SKY/WX    TMP DP  RH WIND       PRES   REMARKS
LOUISVILLE/SDF CLOUDY    74  71  91 SW3       30.02R
LOUISVILLE/LOU CLOUDY    74  72  93 S3        30.03R
FORT KNOX      CLOUDY    73  73 100 E2        30.03F
$$

KYZ035>037-039>044-047>052-055>060-089>105-230400-
NORTHEAST KENTUCKY

CITY           SKY/WX    TMP DP  RH WIND       PRES   REMARKS
LEXINGTON      CLOUDY    76  73  91 CALM      30.04R
COVINGTON      PTCLDY    74  71  91 CALM      30.01S
FRANKFORT      CLOUDY    73  70  90 SW6       30.02S
$$

KYZ054-064>069-076>088-106>120-230400-
SOUTHEAST KENTUCKY

CITY           SKY/WX    TMP DP  RH WIND       PRES   REMARKS
JACKSON        CLOUDY    72  68  87 CALM      30.05F
LONDON         CLOUDY    79  72  79 CALM      30.06S
SOMERSET       CLOUDY    75  73  94 CALM      30.05S
MIDDLESBORO    CLOUDY    75  71  88 CALM      30.06F
MONTICELLO     MOCLDY    75  74  97 CALM      30.06R
$$



USA.gov is the U.S. government's official web portal to all federal, state and local government web resources and services.